Wind_Speed
3 2 2 2 2 2 3 3 3 3 3 3 3 3 3 2 2 2 2 2 2 2 3 3 3 3 3 3 3 3 4 5 5 5 5 6 6 6 7 7 7 8 7 7 7 7 7 7 7
2 2 2 2 2 3 3 4 4 4 4 3 3 3 3 3 2 2 2 2 2 3 3 3 3 4 3 4 4 4 5 5 6 5 5 6 6 6 6 7 8 8 9 9 8 8 8 8 8
2 2 2 2 2 3 4 4 4 4 4 3 3 3 3 3 3 3 3 3 3 3 3 4 4 4 4 4 5 5 6 6 6 6 6 6 6 6 6 7 8 8 9 9 9 9 9 9 8
2 2 2 3 3 4 4 4 4 4 3 3 3 3 4 4 4 4 3 4 4 4 3 4 4 4 4 5 5 5 6 6 6 6 6 6 6 6 7 7 8 8 9 9 10 10 9 9 9
2 2 3 3 3 4 5 5 4 4 3 4 4 4 4 4 4 4 4 4 4 4 4 4 4 4 4 5 5 5 6 6 7 7 7 7 7 7 7 8 8 9 9 10 10 9 9 10 10
2 2 2 3 4 4 5 4 4 4 3 4 4 4 4 4 4 4 3 3 4 5 5 5 5 5 5 6 6 5 6 6 6 6 7 7 7 7 7 8 8 9 9 9 10 10 10 10 10
2 2 3 3 4 4 4 4 3 3 3 4 4 4 4 4 4 4 4 4 4 5 5 5 5 6 6 6 6 6 6 6 6 7 7 7 7 8 8 8 8 8 9 10 10 11 11 11 11
2 2 2 3 3 4 4 4 3 4 3 4 4 4 4 4 4 4 4 4 4 5 6 6 6 6 7 7 6 6 6 7 7 7 7 7 7 8 8 8 8 9 9 10 11 11 11 11 11
2 2 2 3 4 4 4 4 4 4 4 4 4 5 5 5 5 5 5 5 5 6 6 7 7 7 7 7 7 7 7 7 7 7 7 8 8 8 8 8 9 9 9 10 11 11 11 11 11
2 2 3 3 4 4 4 4 4 5 5 5 5 5 5 5 5 5 6 6 6 6 7 7 7 7 7 7 7 7 7 7 7 8 8 8 9 9 9 9 9 9 9 10 11 10 11 11 11
3 3 3 4 4 4 4 4 5 5 5 5 5 5 5 5 5 6 6 7 7 7 8 8 8 8 8 8 8 8 8 8 8 8 9 9 9 9 9 10 10 10 10 10 11 10 10 11 11
4 4 4 5 5 5 5 5 6 6 6 6 6 6 6 6 6 6 7 7 7 7 7 7 8 8 8 8 8 8 8 8 8 8 9 9 10 10 10 10 10 10 10 11 11 11 11 11 11
4 5 5 6 6 6 6 6 6 7 7 6 6 6 6 6 6 7 7 7 8 7 7 7 8 8 8 8 8 8 9 9 9 9 9 10 10 9 9 10 11 11 11 11 11 11 11 11 11
6 6 6 6 6 7 7 7 7 7 7 7 7 7 7 7 7 8 8 8 8 8 8 8 9 9 8 8 8 9 10 10 10 10 10 10 10 10 10 10 10 11 11 11 11 11 11 12 12
7 7 7 7 8 8 8 7 7 7 8 8 8 8 8 8 8 9 9 8 8 8 8 9 9 10 10 9 9 10 10 10 10 10 10 10 10 10 10 10 11 11 11 12 11 11 12 12 12
7 8 8 8 9 8 8 8 9 8 8 8 8 8 8 8 9 9 9 9 9 9 9 9 10 10 10 10 9 9 10 10 10 10 10 10 10 10 11 11 11 12 11 11 12 11 11 11 11
8 8 9 9 9 9 9 9 9 9 9 9 9 10 10 10 10 10 9 9 9 10 10 10 10 10 10 10 10 10 10 10 10 10 10 10 10 10 11 11 11 11 12 11 11 11 11 12 12
8 9 10 10 10 10 10 9 9 9 9 10 10 11 11 11 11 10 10 10 10 11 11 11 11 11 11 11 11 10 11 11 10 10 10 10 10 10 10 11 11 11 11 10 11 11 11 11 12
10 10 10 10 10 11 11 10 10 10 10 10 10 11 11 11 12 12 11 11 11 11 11 11 11 11 11 11 11 11 11 11 11 11 11 11 11 11 10 11 11 11 11 11 11 11 11 11 12
11 11 11 11 12 12 12 11 10 10 10 11 11 11 11 12 12 12 12 11 11 12 12 12 12 12 12 12 12 12 11 11 11 11 11 10 11 11 11 11 11 11 11 11 11 11 11 11 11
12 12 12 13 13 13 13 12 12 12 12 12 12 11 12 12 12 12 12 12 12 12 13 13 13 13 12 12 13 12 12 12 12 12 11 11 11 11 11 11 12 12 12 12 12 12 12 12 12
13 13 14 13 14 14 14 13 12 13 12 12 12 12 12 12 12 12 12 12 12 13 13 13 13 13 13 13 13 13 13 13 13 12 12 12 12 12 11 12 12 11 12 12 12 13 13 13 13
14 14 14 14 14 15 14 14 13 13 13 13 13 13 13 13 13 13 13 13 13 13 13 14 14 14 14 14 14 13 13 14 13 13 13 13 13 12 12 12 12 11 12 12 12 12 13 13 13
15 15 15 15 15 15 15 15 14 14 13 13 14 14 14 14 14 14 14 14 14 14 14 14 14 14 14 14 14 14 14 14 14 14 13 13 13 13 13 13 13 13 13 13 12 12 13 13 13
15 15 15 15 15 15 15 15 15 15 15 15 15 16 15 15 15 15 15 15 15 15 14 14 14 15 15 15 15 15 15 15 15 15 15 14 14 14 15 15 14 14 14 14 14 14 14 14 14
15 15 15 16 16 16 16 16 17 16 16 16 17 17 16 16 16 15 16 16 17 16 15 15 15 15 15 16 16 16 16 16 16 16 16 15 15 15 16 15 15 15 16 16 15 16 16 16 16
15 16 16 17 17 17 17 17 18 17 17 17 17 17 17 17 16 16 17 17 17 16 16 16 16 15 16 16 17 17 17 17 17 17 17 16 16 16 16 16 16 16 16 17 17 16 17 17 17
16 16 17 17 17 17 17 17 18 18 18 18 17 17 17 17 17 17 17 17 17 17 17 17 17 17 16 17 18 18 18 18 18 18 18 17 17 17 17 17 17 17 17 17 17 18 18 18 18
17 17 17 18 18 18 18 18 18 19 19 19 18 18 18 18 18 18 18 18 18 18 17 17 17 17 17 18 18 19 19 19 19 18 18 18 18 19 18 18 18 18 18 19 19 19 18 19 19
18 18 18 19 19 19 20 20 19 19 20 20 19 19 19 19 19 18 18 18 18 19 19 19 18 18 18 19 19 19 20 19 19 19 19 18 18 18 18 18 19 19 19 19 19 19 19 19 18
Wind_Direction
12 5 11 18 23 9 357 347 343 338 346 355 0 1 349 340 326 321 338 349 340 324 313 312 307 306 299 293 291 274 271 275 277 271 263 256 248 242 242 239 236 236 239 239 237 237 240 239 234
2 9 15 19 23 358 347 341 339 339 341 347 352 1 0 357 346 350 349 343 341 326 309 309 307 301 292 291 290 287 280 272 271 272 269 261 254 250 245 243 242 241 240 242 238 236 238 238 238
347 356 9 15 0 337 331 327 330 336 340 346 355 2 359 357 357 349 344 342 340 330 310 301 306 299 291 294 295 293 288 281 276 272 272 266 259 252 247 245 246 247 243 242 238 238 241 238 238
338 345 352 360 351 341 331 328 327 333 337 342 348 350 340 341 342 335 326 329 337 337 324 311 307 304 299 298 297 294 291 287 281 275 269 266 264 258 250 249 250 250 248 243 242 242 243 240 239
338 347 350 349 346 334 328 322 322 327 334 336 336 339 334 333 329 323 319 324 329 325 323 316 311 308 305 301 301 300 294 288 279 276 272 268 266 261 253 248 247 248 246 245 243 244 246 245 241
357 349 350 343 339 327 325 326 322 322 323 324 323 322 323 329 327 320 320 323 322 322 320 319 310 307 305 301 299 296 293 289 284 279 275 270 267 265 258 254 252 248 246 247 246 245 247 248 245
348 346 345 336 335 333 333 329 322 319 319 315 314 318 321 324 324 318 317 320 315 316 319 316 310 306 305 302 297 295 290 287 285 280 276 273 268 265 259 256 253 250 249 250 249 246 247 249 247
333 335 340 335 337 334 333 332 328 323 318 314 307 309 319 324 322 315 315 318 313 310 311 312 310 305 303 300 298 294 291 289 287 282 278 276 271 266 262 258 254 252 253 253 252 249 248 250 247
325 325 321 329 334 339 339 335 330 330 321 312 306 303 311 316 312 310 312 313 311 309 305 302 300 299 300 298 297 292 289 289 289 285 282 280 274 266 261 260 257 255 254 252 252 252 250 250 250
312 312 316 319 328 337 336 332 327 327 324 315 303 297 304 311 306 305 307 307 308 307 305 300 297 295 293 293 293 291 288 286 288 287 282 277 274 269 263 261 261 256 254 252 251 253 250 250 252
306 307 308 313 319 323 322 320 319 319 319 316 308 299 301 304 304 304 304 303 304 302 300 300 298 295 290 287 288 290 288 286 286 287 283 277 273 270 266 261 263 260 258 257 254 256 252 253 252
303 305 302 304 307 310 313 313 309 309 311 310 305 299 299 302 303 303 304 301 301 299 298 298 297 296 290 285 285 286 287 287 285 285 284 279 272 268 265 261 261 261 262 261 258 256 255 258 254
298 303 305 304 305 306 306 305 305 303 304 303 304 301 298 298 299 299 298 296 298 297 293 294 297 296 292 290 288 287 287 286 286 286 285 282 276 269 265 261 260 261 262 264 259 257 257 257 251
298 299 301 301 305 304 304 303 303 304 302 300 299 297 296 295 294 292 291 292 292 292 291 292 296 298 296 292 292 292 292 293 292 289 286 283 278 271 267 265 261 261 261 261 259 257 257 255 253
295 298 301 301 303 303 302 300 301 300 298 297 297 296 294 294 294 293 290 288 287 289 290 293 295 296 296 295 295 294 295 295 292 291 286 282 280 273 269 266 262 261 260 259 258 255 256 253 251
292 293 297 299 302 300 296 294 296 295 293 293 294 294 293 293 292 292 290 289 287 288 290 293 296 297 298 298 298 296 295 294 292 291 287 283 281 276 269 266 262 261 259 258 259 256 255 255 253
287 287 292 297 299 296 293 290 293 295 294 291 289 290 292 293 292 290 289 289 289 287 288 291 295 297 297 297 300 300 298 295 291 291 288 285 282 277 272 269 263 259 258 258 259 257 258 256 253
283 286 292 294 295 294 292 291 294 295 295 294 288 286 289 291 294 291 290 289 288 285 286 288 292 294 296 296 297 298 297 296 292 288 287 285 283 281 276 270 264 258 256 258 261 260 259 257 253
283 286 289 291 292 291 290 290 292 294 295 298 295 289 287 291 295 294 290 288 288 287 286 285 289 291 293 297 296 295 295 294 293 289 288 284 282 281 276 271 264 258 255 258 261 261 259 257 256
283 286 287 288 290 291 290 289 287 286 291 294 296 295 290 291 295 294 292 290 288 286 287 285 286 287 289 294 297 295 294 295 295 295 293 289 286 280 272 268 265 260 258 260 261 262 261 257 256
282 284 285 287 289 288 288 286 284 283 288 292 294 297 295 293 294 293 293 293 292 289 287 286 285 282 285 291 296 295 292 292 293 292 290 289 287 284 276 267 264 263 261 261 261 262 261 257 256
279 282 284 284 286 286 287 285 282 284 287 290 293 293 295 295 294 293 290 290 291 289 287 284 286 284 285 287 291 292 292 290 290 288 287 288 286 284 279 271 266 263 261 260 261 260 260 257 258
277 281 283 283 283 283 284 283 282 282 284 285 288 289 292 294 292 290 288 286 287 287 287 284 283 284 284 285 287 290 291 290 289 287 285 287 282 280 277 269 264 263 262 261 262 262 260 260 256
276 280 281 282 282 280 281 280 281 281 282 282 284 287 292 291 289 287 285 285 286 286 288 286 283 283 281 281 283 287 289 287 286 286 286 284 281 278 276 274 267 265 264 261 260 261 261 262 259
274 278 281 283 281 279 278 277 279 280 281 280 282 285 290 291 288 286 286 285 286 287 287 287 283 282 281 281 282 284 285 285 283 283 281 279 277 276 275 273 270 266 265 264 262 261 261 262 262
273 274 276 277 278 277 279 279 280 281 282 282 282 283 286 288 287 284 286 285 284 284 284 286 284 281 280 279 281 283 283 283 283 281 281 277 276 276 273 272 271 268 266 264 264 263 260 260 261
274 273 273 275 275 275 277 281 280 280 283 284 284 283 284 285 286 285 285 284 283 284 284 284 284 282 281 279 280 282 283 282 282 281 279 277 275 275 272 270 269 268 266 265 264 265 261 258 259
274 275 275 275 276 277 279 281 281 282 283 283 284 284 283 282 284 286 285 284 284 285 284 282 283 281 280 280 281 281 282 282 281 282 279 275 275 274 272 269 268 267 268 267 266 264 263 260 259
275 273 273 274 274 277 280 281 282 283 284 284 285 284 283 282 282 284 284 283 285 285 283 280 280 280 279 280 281 281 281 282 282 282 282 279 278 276 274 271 268 267 268 268 267 265 263 260 259
277 276 275 275 275 275 277 280 281 281 282 283 283 284 284 283 284 285 287 286 285 284 283 281 280 281 281 282 282 281 280 282 283 281 281 278 277 278 277 275 272 270 269 268 266 264 262 261 260
Height
5885 5884 5884 5885 5885 5885 5883 5883 5882 5881 5880 5880 5879 5878 5878 5877 5877 5879 5876 5874 5873 5873 5872 5871 5871 5870 5870 5870 5869 5869 5868 5868 5868 5867 5867 5867 5867 5867 5867 5867 5867 5867 5867 5867 5867 5867 5867 5867 5867
5885 5885 5885 5885 5884 5884 5884 5882 5881 5881 5880 5879 5878 5878 5877 5876 5876 5875 5874 5873 5873 5872 5871 5871 5870 5870 5869 5869 5868 5867 5867 5867 5867 5866 5866 5865 5865 5865 5865 5865 5865 5865 5865 5865 5866 5866 5866 5866 5866
5884 5885 5885 5885 5884 5884 5883 5882 5881 5880 5879 5878 5878 5877 5876 5876 5875 5874 5873 5872 5871 5871 5870 5869 5869 5868 5868 5867 5867 5866 5866 5865 5865 5865 5865 5864 5864 5864 5864 5864 5864 5864 5864 5864 5864 5864 5864 5864 5864
5884 5885 5885 5884 5883 5883 5882 5881 5880 5879 5878 5878 5877 5876 5875 5875 5874 5873 5872 5871 5871 5870 5869 5868 5868 5867 5867 5866 5866 5865 5864 5864 5864 5863 5863 5863 5863 5862 5862 5862 5862 5862 5862 5862 5862 5862 5862 5863 5863
5884 5884 5884 5883 5882 5882 5881 5880 5879 5878 5878 5877 5876 5876 5875 5874 5873 5872 5871 5871 5870 5869 5868 5868 5867 5866 5866 5865 5865 5864 5863 5863 5862 5862 5861 5861 5861 5861 5860 5860 5860 5860 5860 5860 5860 5861 5861 5861 5861
5884 5884 5884 5882 5882 5881 5880 5879 5878 5878 5877 5876 5876 5875 5874 5873 5872 5871 5870 5870 5869 5868 5867 5867 5866 5865 5865 5864 5863 5863 5862 5861 5861 5860 5860 5859 5859 5859 5859 5859 5859 5858 5858 5858 5858 5859 5859 5859 5859
5884 5883 5882 5882 5881 5880 5880 5879 5878 5877 5876 5876 5875 5874 5873 5872 5872 5871 5870 5869 5868 5867 5866 5865 5865 5864 5863 5863 5862 5861 5860 5860 5859 5858 5858 5858 5857 5857 5857 5857 5857 5856 5856 5856 5856 5856 5856 5857 5857
5882 5883 5882 5881 5880 5880 5879 5878 5877 5876 5875 5875 5874 5873 5872 5872 5871 5870 5869 5868 5867 5866 5865 5864 5863 5862 5862 5861 5860 5860 5859 5858 5857 5857 5856 5856 5856 5855 5855 5855 5854 5854 5854 5854 5854 5854 5854 5854 5854
5882 5883 5881 5880 5880 5879 5878 5877 5876 5875 5874 5873 5872 5872 5871 5871 5870 5869 5868 5867 5866 5865 5864 5863 5862 5861 5860 5860 5859 5858 5857 5857 5856 5855 5854 5854 5854 5853 5853 5853 5852 5852 5852 5852 5852 5852 5852 5852 5852
5881 5881 5880 5880 5879 5878 5877 5876 5876 5875 5874 5873 5872 5871 5870 5869 5869 5868 5867 5865 5865 5864 5863 5862 5861 5860 5859 5858 5857 5857 5856 5855 5854 5853 5853 5852 5852 5851 5851 5850 5850 5850 5850 5850 5850 5850 5850 5850 5850
5880 5880 5879 5878 5878 5877 5876 5875 5874 5874 5873 5872 5871 5870 5869 5868 5867 5866 5866 5864 5863 5862 5861 5860 5859 5858 5857 5856 5856 5855 5854 5853 5852 5852 5851 5850 5850 5849 5849 5848 5848 5848 5848 5847 5847 5847 5848 5847 5847
5879 5878 5878 5877 5876 5875 5875 5874 5873 5872 5872 5871 5870 5869 5868 5867 5866 5865 5864 5863 5862 5861 5860 5859 5858 5856 5855 5855 5854 5853 5852 5851 5850 5850 5849 5848 5848 5847 5847 5846 5846 5846 5845 5845 5845 5845 5845 5845 5845
5877 5877 5876 5876 5875 5874 5873 5873 5872 5871 5870 5869 5868 5867 5867 5866 5865 5864 5863 5862 5861 5860 5858 5857 5856 5855 5854 5853 5852 5851 5850 5849 5848 5848 5847 5846 5845 5845 5844 5844 5844 5843 5843 5843 5843 5843 5843 5843 5842
5876 5875 5875 5874 5874 5873 5872 5871 5870 5869 5868 5867 5867 5866 5865 5864 5863 5862 5861 5860 5859 5858 5857 5856 5855 5853 5852 5851 5850 5849 5848 5847 5846 5845 5844 5844 5843 5842 5842 5841 5841 5841 5841 5841 5841 5840 5840 5840 5840
5875 5874 5874 5873 5872 5871 5870 5870 5869 5867 5866 5866 5865 5864 5863 5862 5861 5860 5859 5858 5857 5856 5855 5854 5853 5852 5850 5849 5848 5847 5846 5845 5844 5843 5842 5841 5840 5840 5839 5839 5838 5838 5838 5838 5838 5837 5837 5837 5837
5873 5873 5872 5871 5870 5869 5870 5869 5867 5865 5864 5863 5862 5862 5861 5860 5859 5858 5857 5856 5855 5854 5853 5852 5851 5850 5848 5847 5846 5845 5844 5843 5842 5841 5840 5839 5838 5837 5836 5836 5836 5835 5835 5835 5835 5834 5834 5834 5834
5871 5871 5870 5870 5868 5867 5867 5866 5864 5863 5862 5861 5860 5859 5858 5857 5857 5856 5855 5854 5853 5852 5851 5850 5849 5847 5846 5845 5844 5842 5841 5840 5839 5838 5837 5836 5835 5834 5834 5833 5833 5832 5832 5832 5832 5832 5831 5832 5832
5870 5869 5868 5867 5866 5865 5864 5863 5862 5860 5859 5858 5857 5856 5855 5854 5854 5853 5852 5851 5850 5850 5848 5847 5846 5845 5844 5843 5841 5840 5839 5838 5837 5836 5835 5834 5832 5832 5831 5830 5830 5830 5830 5830 5829 5829 5829 5829 5829
5867 5866 5865 5865 5863 5862 5861 5860 5860 5858 5857 5856 5854 5853 5852 5852 5851 5850 5849 5849 5848 5847 5846 5845 5844 5842 5841 5840 5839 5838 5837 5836 5835 5833 5832 5831 5830 5829 5828 5828 5827 5827 5827 5827 5827 5827 5826 5826 5826
5864 5863 5862 5862 5860 5860 5859 5858 5857 5856 5855 5853 5852 5851 5850 5849 5848 5847 5846 5846 5845 5844 5843 5842 5841 5840 5839 5837 5836 5835 5834 5833 5832 5831 5829 5828 5827 5826 5825 5825 5824 5824 5824 5824 5824 5824 5824 5824 5824
5861 5860 5859 5859 5858 5857 5856 5856 5855 5853 5852 5851 5850 5848 5847 5846 5845 5844 5843 5842 5841 5840 5839 5838 5837 5836 5835 5835 5834 5832 5831 5830 5829 5828 5826 5825 5824 5823 5822 5822 5821 5821 5821 5821 5821 5821 5821 5821 5821
5857 5857 5856 5855 5855 5854 5854 5853 5852 5850 5849 5848 5847 5846 5844 5843 5842 5841 5840 5839 5838 5837 5836 5835 5834 5833 5832 5831 5831 5829 5828 5827 5826 5824 5823 5822 5821 5820 5819 5818 5818 5818 5818 5818 5818 5818 5818 5818 5818
5854 5853 5853 5852 5851 5851 5850 5849 5849 5847 5846 5845 5844 5842 5841 5840 5838 5837 5836 5835 5835 5834 5833 5832 5831 5830 5829 5828 5827 5826 5824 5823 5822 5821 5820 5819 5818 5817 5816 5815 5815 5815 5815 5815 5815 5814 5814 5814 5814
5849 5850 5849 5848 5848 5848 5847 5846 5845 5844 5843 5842 5840 5839 5838 5837 5835 5834 5833 5832 5831 5830 5829 5828 5827 5826 5825 5824 5823 5822 5821 5820 5819 5818 5816 5815 5814 5813 5812 5811 5811 5812 5812 5811 5811 5811 5811 5811 5811
5846 5846 5846 5845 5844 5844 5843 5842 5842 5840 5839 5838 5837 5835 5834 5833 5831 5830 5829 5828 5827 5826 5825 5824 5823 5822 5821 5820 5819 5818 5817 5816 5815 5814 5812 5812 5811 5809 5809 5808 5808 5808 5808 5808 5808 5808 5807 5807 5807
5841 5842 5843 5842 5841 5840 5838 5838 5838 5836 5835 5833 5833 5831 5830 5829 5827 5826 5825 5824 5823 5822 5821 5819 5818 5817 5817 5816 5815 5814 5813 5812 5811 5809 5808 5807 5807 5805 5804 5804 5804 5803 5803 5803 5803 5803 5803 5803 5803
5837 5837 5837 5837 5835 5835 5834 5834 5832 5831 5830 5829 5828 5827 5826 5825 5823 5822 5821 5819 5818 5817 5816 5815 5814 5813 5812 5811 5810 5809 5808 5807 5806 5805 5804 5803 5802 5801 5800 5800 5799 5799 5798 5798 5798 5798 5798 5798 5799
5832 5832 5832 5831 5831 5830 5830 5829 5829 5826 5826 5825 5823 5822 5821 5820 5819 5817 5816 5815 5813 5812 5811 5810 5809 5808 5807 5806 5805 5804 5803 5802 5801 5800 5799 5798 5797 5796 5795 5795 5794 5794 5793 5793 5793 5793 5793 5793 5793
5827 5827 5826 5826 5826 5826 5825 5827 5823 5822 5820 5819 5819 5817 5816 5815 5814 5813 5812 5810 5809 5807 5806 5805 5804 5803 5802 5801 5800 5799 5798 5797 5795 5794 5793 5793 5792 5791 5790 5789 5789 5789 5788 5788 5787 5787 5787 5787 5788
5821 5821 5821 5822 5820 5820 5820 5822 5817 5816 5815 5814 5813 5812 5811 5810 5809 5808 5806 5805 5804 5802 5801 5800 5798 5797 5796 5795 5794 5793 5792 5791 5790 5789 5788 5787 5786 5785 5784 5783 5783 5782 5782 5782 5781 5781 5781 5781 5782